Year,Month,Day,Hour,Minute,Value (Times are PST for windspeed in km/hr)
2007,05,09,00,00,12.70
2007,05,09,00,01,11.80
2007,05,09,00,02,14.70
2007,05,09,00,03,13.10
2007,05,09,00,04,10.90
2007,05,09,00,05,8.40
2007,05,09,00,06,11.10
2007,05,09,00,07,9.10
2007,05,09,00,08,10.90
2007,05,09,00,09,11.40
2007,05,09,00,10,11.50
2007,05,09,00,11,11.20
2007,05,09,00,12,12.20
2007,05,09,00,13,15.20
2007,05,09,00,14,15.10
2007,05,09,00,15,14.50
2007,05,09,00,16,13.60
2007,05,09,00,17,16.80
2007,05,09,00,18,9.90
2007,05,09,00,19,17.30
2007,05,09,00,20,18.30
2007,05,09,00,21,11.20
2007,05,09,00,22,14.60
2007,05,09,00,23,12.40
2007,05,09,00,24,13.50
2007,05,09,00,25,8.90
2007,05,09,00,26,14.60
2007,05,09,00,27,12.10
2007,05,09,00,28,11.80
2007,05,09,00,29,14.70
2007,05,09,00,30,18.00
2007,05,09,00,31,11.90
2007,05,09,00,32,12.60
2007,05,09,00,33,12.40
2007,05,09,00,34,5.90
2007,05,09,00,35,8.00
2007,05,09,00,36,6.20
2007,05,09,00,37,5.40
2007,05,09,00,38,5.10
2007,05,09,00,39,1.20
2007,05,09,00,40,2.20
2007,05,09,00,41,4.60
2007,05,09,00,42,4.70
2007,05,09,00,43,7.00
2007,05,09,00,44,6.40
2007,05,09,00,45,2.70
2007,05,09,00,46,3.40
2007,05,09,00,47,0.60
2007,05,09,00,48,5.20
2007,05,09,00,49,6.20
2007,05,09,00,50,6.20
2007,05,09,00,51,3.90
2007,05,09,00,52,2.80
2007,05,09,00,53,8.80
2007,05,09,00,54,4.80
2007,05,09,00,55,5.50
2007,05,09,00,56,5.00
2007,05,09,00,57,5.70
2007,05,09,00,58,5.10
2007,05,09,00,59,9.20
2007,05,09,01,00,8.90
2007,05,09,01,01,13.10
2007,05,09,01,02,13.00
2007,05,09,01,03,10.50
2007,05,09,01,04,7.40
2007,05,09,01,05,7.90
2007,05,09,01,06,12.60
2007,05,09,01,07,10.70
2007,05,09,01,08,12.70
2007,05,09,01,09,16.60
2007,05,09,01,10,8.90
2007,05,09,01,11,15.60
2007,05,09,01,12,10.30
2007,05,09,01,13,16.10
2007,05,09,01,14,12.90
2007,05,09,01,15,10.50
2007,05,09,01,16,6.90
2007,05,09,01,17,4.80
2007,05,09,01,18,6.50
2007,05,09,01,19,7.20
2007,05,09,01,20,9.00
2007,05,09,01,21,7.20
2007,05,09,01,22,4.30
2007,05,09,01,23,2.40
2007,05,09,01,24,6.30
2007,05,09,01,25,7.70
2007,05,09,01,26,5.10
2007,05,09,01,27,6.00
2007,05,09,01,28,8.50
2007,05,09,01,29,6.80
2007,05,09,01,30,8.50
2007,05,09,01,31,9.40
2007,05,09,01,32,6.70
2007,05,09,01,33,10.20
2007,05,09,01,34,14.10
2007,05,09,01,35,7.60
2007,05,09,01,36,6.60
2007,05,09,01,37,4.70
2007,05,09,01,38,12.50
2007,05,09,01,39,8.80
2007,05,09,01,40,8.30
2007,05,09,01,41,8.10
2007,05,09,01,42,8.10
2007,05,09,01,43,8.10
2007,05,09,01,44,8.10
2007,05,09,01,45,6.00
2007,05,09,01,46,5.30
2007,05,09,01,47,8.60
2007,05,09,01,48,6.90
2007,05,09,01,49,7.20
2007,05,09,01,50,8.10
2007,05,09,01,51,11.70
2007,05,09,01,52,10.50
2007,05,09,01,53,11.30
2007,05,09,01,54,8.90
2007,05,09,01,55,6.90
2007,05,09,01,56,8.90
2007,05,09,01,57,7.20
2007,05,09,01,58,8.90
2007,05,09,01,59,10.80
2007,05,09,02,00,13.50
2007,05,09,02,01,12.70
2007,05,09,02,02,8.90
2007,05,09,02,03,7.20
2007,05,09,02,04,4.80
2007,05,09,02,05,8.10
2007,05,09,02,06,4.50
2007,05,09,02,07,1.90
2007,05,09,02,08,3.00
2007,05,09,02,09,4.10
2007,05,09,02,10,4.00
2007,05,09,02,11,4.70
2007,05,09,02,12,2.60
2007,05,09,02,13,2.60
2007,05,09,02,14,1.10
2007,05,09,02,15,0.90
2007,05,09,02,16,0.30
2007,05,09,02,17,0.40
2007,05,09,02,18,0.00
2007,05,09,02,19,0.20
2007,05,09,02,20,0.30
2007,05,09,02,21,1.10
2007,05,09,02,22,1.60
2007,05,09,02,23,2.30
2007,05,09,02,24,0.40
2007,05,09,02,25,0.10
2007,05,09,02,26,0.00
2007,05,09,02,27,0.10
2007,05,09,02,28,0.00
2007,05,09,02,29,0.00
2007,05,09,02,30,0.00
2007,05,09,02,31,0.00
2007,05,09,02,32,0.70
2007,05,09,02,33,0.00
2007,05,09,02,34,0.00
2007,05,09,02,35,0.00
2007,05,09,02,36,0.80
2007,05,09,02,37,1.20
2007,05,09,02,38,0.40
2007,05,09,02,39,1.70
2007,05,09,02,40,1.60
2007,05,09,02,41,2.10
2007,05,09,02,42,3.20
2007,05,09,02,43,3.80
2007,05,09,02,44,4.30
2007,05,09,02,45,4.00
2007,05,09,02,46,3.40
2007,05,09,02,47,1.70
2007,05,09,02,48,1.30
2007,05,09,02,49,1.30
2007,05,09,02,50,0.10
2007,05,09,02,51,0.00
2007,05,09,02,52,0.20
2007,05,09,02,53,0.50
2007,05,09,02,54,0.00
2007,05,09,02,55,0.00
2007,05,09,02,56,1.20
2007,05,09,02,57,2.10
2007,05,09,02,58,2.80
2007,05,09,02,59,2.90
2007,05,09,03,00,1.20
2007,05,09,03,01,1.40
2007,05,09,03,02,1.50
2007,05,09,03,03,0.70
2007,05,09,03,04,1.00
2007,05,09,03,05,1.60
2007,05,09,03,06,2.80
2007,05,09,03,07,3.00
2007,05,09,03,08,1.10
2007,05,09,03,09,0.50
2007,05,09,03,10,0.30
2007,05,09,03,11,0.20
2007,05,09,03,12,0.70
2007,05,09,03,13,2.00
2007,05,09,03,14,1.70
2007,05,09,03,15,3.80
2007,05,09,03,16,3.80
2007,05,09,03,17,4.60
2007,05,09,03,18,4.00
2007,05,09,03,19,3.50
2007,05,09,03,20,4.40
2007,05,09,03,21,4.60
2007,05,09,03,22,4.70
2007,05,09,03,23,4.40
2007,05,09,03,24,3.80
2007,05,09,03,25,2.80
2007,05,09,03,26,2.20
2007,05,09,03,27,1.60
2007,05,09,03,28,1.00
2007,05,09,03,29,0.70
2007,05,09,03,30,0.10
2007,05,09,03,31,0.00
2007,05,09,03,32,0.00
2007,05,09,03,33,0.00
2007,05,09,03,34,0.00
2007,05,09,03,35,0.00
2007,05,09,03,36,0.00
2007,05,09,03,37,0.00
2007,05,09,03,38,0.00
2007,05,09,03,39,0.20
2007,05,09,03,40,0.10
2007,05,09,03,41,0.00
2007,05,09,03,42,0.00
2007,05,09,03,43,0.00
2007,05,09,03,44,0.00
2007,05,09,03,45,0.00
2007,05,09,03,46,0.00
2007,05,09,03,47,0.00
2007,05,09,03,48,0.00
2007,05,09,03,49,0.00
2007,05,09,03,50,0.00
2007,05,09,03,51,0.00
2007,05,09,03,52,0.00
2007,05,09,03,53,0.00
2007,05,09,03,54,0.00
2007,05,09,03,55,0.00
2007,05,09,03,56,0.00
2007,05,09,03,57,0.20
2007,05,09,03,58,0.40
2007,05,09,03,59,0.50
2007,05,09,04,00,0.70
2007,05,09,04,01,1.60
2007,05,09,04,02,1.60
2007,05,09,04,03,0.80
2007,05,09,04,04,1.00
2007,05,09,04,05,0.20
2007,05,09,04,06,0.00
2007,05,09,04,07,0.00
2007,05,09,04,08,0.00
2007,05,09,04,09,0.10
2007,05,09,04,10,0.00
2007,05,09,04,11,0.90
2007,05,09,04,12,1.60
2007,05,09,04,13,0.90
2007,05,09,04,14,1.20
2007,05,09,04,15,1.60
2007,05,09,04,16,1.90
2007,05,09,04,17,3.00
2007,05,09,04,18,1.90
2007,05,09,04,19,3.00
2007,05,09,04,20,3.40
2007,05,09,04,21,2.90
2007,05,09,04,22,2.50
2007,05,09,04,23,1.90
2007,05,09,04,24,1.50
2007,05,09,04,25,3.00
2007,05,09,04,26,3.90
2007,05,09,04,27,4.10
2007,05,09,04,28,2.50
2007,05,09,04,29,2.10
2007,05,09,04,30,2.40
2007,05,09,04,31,2.30
2007,05,09,04,32,2.80
2007,05,09,04,33,2.00
2007,05,09,04,34,1.50
2007,05,09,04,35,0.50
2007,05,09,04,36,0.90
2007,05,09,04,37,2.50
2007,05,09,04,38,2.90
2007,05,09,04,39,2.60
2007,05,09,04,40,0.80
2007,05,09,04,41,0.80
2007,05,09,04,42,1.30
2007,05,09,04,43,0.30
2007,05,09,04,44,3.70
2007,05,09,04,45,4.30
2007,05,09,04,46,4.80
2007,05,09,04,47,4.40
2007,05,09,04,48,3.10
2007,05,09,04,49,3.70
2007,05,09,04,50,4.10
2007,05,09,04,51,3.50
2007,05,09,04,52,3.30
2007,05,09,04,53,3.20
2007,05,09,04,54,3.80
2007,05,09,04,55,3.50
2007,05,09,04,56,3.10
2007,05,09,04,57,2.10
2007,05,09,04,58,2.20
2007,05,09,04,59,1.20
2007,05,09,05,00,0.20
2007,05,09,05,01,0.00
2007,05,09,05,02,0.00
2007,05,09,05,03,0.00
2007,05,09,05,04,0.50
2007,05,09,05,05,0.80
2007,05,09,05,06,0.80
2007,05,09,05,07,0.60
2007,05,09,05,08,0.10
2007,05,09,05,09,0.00
2007,05,09,05,10,0.50
2007,05,09,05,11,0.30
2007,05,09,05,12,0.10
2007,05,09,05,13,0.20
2007,05,09,05,14,0.00
2007,05,09,05,15,0.00
2007,05,09,05,16,0.60
2007,05,09,05,17,0.40
2007,05,09,05,18,0.00
2007,05,09,05,19,0.00
2007,05,09,05,20,0.00
2007,05,09,05,21,0.00
2007,05,09,05,22,0.00
2007,05,09,05,23,0.00
2007,05,09,05,24,0.00
2007,05,09,05,25,0.00
2007,05,09,05,26,0.00
2007,05,09,05,27,0.00
2007,05,09,05,28,0.00
2007,05,09,05,29,0.50
2007,05,09,05,30,0.00
2007,05,09,05,31,0.00
2007,05,09,05,32,0.00
2007,05,09,05,33,0.00
2007,05,09,05,34,0.00
2007,05,09,05,35,0.00
2007,05,09,05,36,0.00
2007,05,09,05,37,0.00
2007,05,09,05,38,0.00
2007,05,09,05,39,0.00
2007,05,09,05,40,0.00
2007,05,09,05,41,0.00
2007,05,09,05,42,0.00
2007,05,09,05,43,0.00
2007,05,09,05,44,0.00
2007,05,09,05,45,0.00
2007,05,09,05,46,0.60
2007,05,09,05,47,0.50
2007,05,09,05,48,0.50
2007,05,09,05,49,0.00
2007,05,09,05,50,0.00
2007,05,09,05,51,0.00
2007,05,09,05,52,0.00
2007,05,09,05,53,0.00
2007,05,09,05,54,0.00
2007,05,09,05,55,0.00
2007,05,09,05,56,0.00
2007,05,09,05,57,0.00
2007,05,09,05,58,0.00
2007,05,09,05,59,0.00
2007,05,09,06,00,0.00
2007,05,09,06,01,0.00
2007,05,09,06,02,0.00
2007,05,09,06,03,0.00
2007,05,09,06,04,0.00
2007,05,09,06,05,0.00
2007,05,09,06,06,0.00
2007,05,09,06,07,0.00
2007,05,09,06,08,0.00
2007,05,09,06,09,0.00
2007,05,09,06,10,0.30
2007,05,09,06,11,0.10
2007,05,09,06,12,0.20
2007,05,09,06,13,0.20
2007,05,09,06,14,0.00
2007,05,09,06,15,0.00
2007,05,09,06,16,0.20
2007,05,09,06,17,0.90
2007,05,09,06,18,1.10
2007,05,09,06,19,2.90
2007,05,09,06,20,3.50
2007,05,09,06,21,3.80
2007,05,09,06,22,4.70
2007,05,09,06,23,3.70
2007,05,09,06,24,3.40
2007,05,09,06,25,3.80
2007,05,09,06,26,2.60
2007,05,09,06,27,2.20
2007,05,09,06,28,1.20
2007,05,09,06,29,2.90
2007,05,09,06,30,1.70
2007,05,09,06,31,2.10
2007,05,09,06,32,2.10
2007,05,09,06,33,1.80
2007,05,09,06,34,1.90
2007,05,09,06,35,1.10
2007,05,09,06,36,2.40
2007,05,09,06,37,1.80
2007,05,09,06,38,0.00
2007,05,09,06,39,0.00
2007,05,09,06,40,0.00
2007,05,09,06,41,0.00
2007,05,09,06,42,0.00
2007,05,09,06,43,0.00
2007,05,09,06,44,0.00
2007,05,09,06,45,0.00
2007,05,09,06,46,0.00
2007,05,09,06,47,0.00
2007,05,09,06,48,0.00
2007,05,09,06,49,0.00
2007,05,09,06,50,0.00
2007,05,09,06,51,0.30
2007,05,09,06,52,1.00
2007,05,09,06,53,0.00
2007,05,09,06,54,0.00
2007,05,09,06,55,0.00
2007,05,09,06,56,0.00
2007,05,09,06,57,0.70
2007,05,09,06,58,2.00
2007,05,09,06,59,2.50
2007,05,09,07,00,1.30
2007,05,09,07,01,0.70
2007,05,09,07,02,1.40
2007,05,09,07,03,3.10
2007,05,09,07,04,2.20
2007,05,09,07,05,1.90
2007,05,09,07,06,2.70
2007,05,09,07,07,2.70
2007,05,09,07,08,3.00
2007,05,09,07,09,2.50
2007,05,09,07,10,2.30
2007,05,09,07,11,2.30
2007,05,09,07,12,2.00
2007,05,09,07,13,2.40
2007,05,09,07,14,2.10
2007,05,09,07,15,3.20
2007,05,09,07,16,2.50
2007,05,09,07,17,2.60
2007,05,09,07,18,2.70
2007,05,09,07,19,2.90
2007,05,09,07,20,3.70
2007,05,09,07,21,3.70
2007,05,09,07,22,3.00
2007,05,09,07,23,2.20
2007,05,09,07,24,1.20
2007,05,09,07,25,3.60
2007,05,09,07,26,1.60
2007,05,09,07,27,2.70
2007,05,09,07,28,1.50
2007,05,09,07,29,1.10
2007,05,09,07,30,2.20
2007,05,09,07,31,1.80
2007,05,09,07,32,2.90
2007,05,09,07,33,2.00
2007,05,09,07,34,2.80
2007,05,09,07,35,2.60
2007,05,09,07,36,3.80
2007,05,09,07,37,3.50
2007,05,09,07,38,1.60
2007,05,09,07,39,2.80
2007,05,09,07,40,0.30
2007,05,09,07,41,2.50
2007,05,09,07,42,2.50
2007,05,09,07,43,1.40
2007,05,09,07,44,4.10
2007,05,09,07,45,2.50
2007,05,09,07,46,3.40
2007,05,09,07,47,2.20
2007,05,09,07,48,3.90
2007,05,09,07,49,2.30
2007,05,09,07,50,2.80
2007,05,09,07,51,4.70
2007,05,09,07,52,4.70
2007,05,09,07,53,4.00
2007,05,09,07,54,5.00
2007,05,09,07,55,2.70
2007,05,09,07,56,0.80
2007,05,09,07,57,4.60
2007,05,09,07,58,4.20
2007,05,09,07,59,3.60
2007,05,09,08,00,6.40
2007,05,09,08,01,4.60
2007,05,09,08,02,1.90
2007,05,09,08,03,4.30
2007,05,09,08,04,6.40
2007,05,09,08,05,5.40
2007,05,09,08,06,8.00
2007,05,09,08,07,5.80
2007,05,09,08,08,6.00
2007,05,09,08,09,4.60
2007,05,09,08,10,3.90
2007,05,09,08,11,4.70
2007,05,09,08,12,3.50
2007,05,09,08,13,5.60
2007,05,09,08,14,4.90
2007,05,09,08,15,4.40
2007,05,09,08,16,4.70
2007,05,09,08,17,1.70
2007,05,09,08,18,2.90
2007,05,09,08,19,5.20
2007,05,09,08,20,6.40
2007,05,09,08,21,6.40
2007,05,09,08,22,6.40
2007,05,09,08,23,4.20
2007,05,09,08,24,5.50
2007,05,09,08,25,6.70
2007,05,09,08,26,4.80
2007,05,09,08,27,6.70
2007,05,09,08,28,6.80
2007,05,09,08,29,6.20
2007,05,09,08,30,5.10
2007,05,09,08,31,2.30
2007,05,09,08,32,1.70
2007,05,09,08,33,2.00
2007,05,09,08,34,4.00
2007,05,09,08,35,4.80
2007,05,09,08,36,2.80
2007,05,09,08,37,1.20
2007,05,09,08,38,2.80
2007,05,09,08,39,4.10
2007,05,09,08,40,2.60
2007,05,09,08,41,1.60
2007,05,09,08,42,3.40
2007,05,09,08,43,5.30
2007,05,09,08,44,4.60
2007,05,09,08,45,3.40
2007,05,09,08,46,2.90
2007,05,09,08,47,1.20
2007,05,09,08,48,1.50
2007,05,09,08,49,1.70
2007,05,09,08,50,4.60
2007,05,09,08,51,3.80
2007,05,09,08,52,4.80
2007,05,09,08,53,4.80
2007,05,09,08,54,2.10
2007,05,09,08,55,1.90
2007,05,09,08,56,2.00
2007,05,09,08,57,3.20
2007,05,09,08,58,3.90
2007,05,09,08,59,5.30
2007,05,09,09,00,5.40
2007,05,09,09,01,3.40
2007,05,09,09,02,3.50
2007,05,09,09,03,3.10
2007,05,09,09,04,4.20
2007,05,09,09,05,1.80
2007,05,09,09,06,2.00
2007,05,09,09,07,3.60
2007,05,09,09,08,2.30
2007,05,09,09,09,4.30
2007,05,09,09,10,4.30
2007,05,09,09,11,3.50
2007,05,09,09,12,3.30
2007,05,09,09,13,4.80
2007,05,09,09,14,2.00
2007,05,09,09,15,5.80
2007,05,09,09,16,3.70
2007,05,09,09,17,2.40
2007,05,09,09,18,3.60
2007,05,09,09,19,5.50
2007,05,09,09,20,3.80
2007,05,09,09,21,1.20
2007,05,09,09,22,1.20
2007,05,09,09,23,1.70
2007,05,09,09,24,0.50
2007,05,09,09,25,1.70
2007,05,09,09,26,2.70
2007,05,09,09,27,3.30
2007,05,09,09,28,5.00
2007,05,09,09,29,3.50
2007,05,09,09,30,1.50
2007,05,09,09,31,1.90
2007,05,09,09,32,3.10
2007,05,09,09,33,3.30
2007,05,09,09,34,4.00
2007,05,09,09,35,1.90
2007,05,09,09,36,2.00
2007,05,09,09,37,4.00
2007,05,09,09,38,4.80
2007,05,09,09,39,2.60
2007,05,09,09,40,3.20
2007,05,09,09,41,3.20
2007,05,09,09,42,3.20
2007,05,09,09,43,3.20
2007,05,09,09,44,3.20
2007,05,09,09,45,3.20
2007,05,09,09,46,3.20
2007,05,09,09,47,3.20
2007,05,09,09,48,3.20
2007,05,09,09,49,3.30
2007,05,09,09,50,6.80
2007,05,09,09,51,3.10
2007,05,09,09,52,5.20
2007,05,09,09,53,2.90
2007,05,09,09,54,3.60
2007,05,09,09,55,3.40
2007,05,09,09,56,6.20
2007,05,09,09,57,4.30
2007,05,09,09,58,8.70
2007,05,09,09,59,7.30
2007,05,09,10,00,5.20
2007,05,09,10,01,5.20
2007,05,09,10,02,4.30
2007,05,09,10,03,6.40
2007,05,09,10,04,4.10
2007,05,09,10,05,8.00
2007,05,09,10,06,2.80
2007,05,09,10,07,5.10
2007,05,09,10,08,5.00
2007,05,09,10,09,3.10
2007,05,09,10,10,6.90
2007,05,09,10,11,1.50
2007,05,09,10,12,1.60
2007,05,09,10,13,4.60
2007,05,09,10,14,4.30
2007,05,09,10,15,5.30
2007,05,09,10,16,4.20
2007,05,09,10,17,5.20
2007,05,09,10,18,6.70
2007,05,09,10,19,5.30
2007,05,09,10,20,5.30
2007,05,09,10,21,2.70
2007,05,09,10,22,3.50
2007,05,09,10,23,7.70
2007,05,09,10,24,6.90
2007,05,09,10,25,4.30
2007,05,09,10,26,1.40
2007,05,09,10,27,2.00
2007,05,09,10,28,4.00
2007,05,09,10,29,4.10
2007,05,09,10,30,1.30
2007,05,09,10,31,6.00
2007,05,09,10,32,9.10
2007,05,09,10,33,12.50
2007,05,09,10,34,11.80
2007,05,09,10,35,14.80
2007,05,09,10,36,9.80
2007,05,09,10,37,10.80
2007,05,09,10,38,10.30
2007,05,09,10,39,9.70
2007,05,09,10,40,10.50
2007,05,09,10,41,8.70
2007,05,09,10,42,12.30
2007,05,09,10,43,12.90
2007,05,09,10,44,12.20
2007,05,09,10,45,9.30
2007,05,09,10,46,12.60
2007,05,09,10,47,12.30
2007,05,09,10,48,14.90
2007,05,09,10,49,12.60
2007,05,09,10,50,12.60
2007,05,09,10,51,9.00
2007,05,09,10,52,9.40
2007,05,09,10,53,8.10
2007,05,09,10,54,12.80
2007,05,09,10,55,10.80
2007,05,09,10,56,10.30
2007,05,09,10,57,12.30
2007,05,09,10,58,8.40
2007,05,09,10,59,8.10
2007,05,09,11,00,7.40
2007,05,09,11,01,9.00
2007,05,09,11,02,12.20
2007,05,09,11,03,12.00
2007,05,09,11,04,11.10
2007,05,09,11,05,4.30
2007,05,09,11,06,6.10
2007,05,09,11,07,6.80
2007,05,09,11,08,8.20
2007,05,09,11,09,5.80
2007,05,09,11,10,9.00
2007,05,09,11,11,9.40
2007,05,09,11,12,8.40
2007,05,09,11,13,3.80
2007,05,09,11,14,5.20
2007,05,09,11,15,8.80
2007,05,09,11,16,6.40
2007,05,09,11,17,9.10
2007,05,09,11,18,8.00
2007,05,09,11,19,12.80
2007,05,09,11,20,9.60
2007,05,09,11,21,9.30
2007,05,09,11,22,5.30
2007,05,09,11,23,6.00
2007,05,09,11,24,3.70
2007,05,09,11,25,3.10
2007,05,09,11,26,5.10
2007,05,09,11,27,8.20
2007,05,09,11,28,6.80
2007,05,09,11,29,5.00
2007,05,09,11,30,4.80
2007,05,09,11,31,9.40
2007,05,09,11,32,9.00
2007,05,09,11,33,9.20
2007,05,09,11,34,13.50
2007,05,09,11,35,15.20
2007,05,09,11,36,14.50
2007,05,09,11,37,14.50
2007,05,09,11,38,12.80
2007,05,09,11,39,7.50
2007,05,09,11,40,4.10
2007,05,09,11,41,7.10
2007,05,09,11,42,3.90
2007,05,09,11,43,9.30
2007,05,09,11,44,9.20
2007,05,09,11,45,9.60
2007,05,09,11,46,6.20
2007,05,09,11,47,6.20
2007,05,09,11,48,6.70
2007,05,09,11,49,7.20
2007,05,09,11,50,7.80
2007,05,09,11,51,5.60
2007,05,09,11,52,5.30
2007,05,09,11,53,8.50
2007,05,09,11,54,2.80
2007,05,09,11,55,3.20
2007,05,09,11,56,1.20
2007,05,09,11,57,1.50
2007,05,09,11,58,4.30
2007,05,09,11,59,8.30
2007,05,09,12,00,6.50
2007,05,09,12,01,4.80
2007,05,09,12,02,4.50
2007,05,09,12,03,4.70
2007,05,09,12,04,5.00
2007,05,09,12,05,3.60
2007,05,09,12,06,2.50
2007,05,09,12,07,3.50
2007,05,09,12,08,2.80
2007,05,09,12,09,3.20
2007,05,09,12,10,6.40
2007,05,09,12,11,11.40
2007,05,09,12,12,5.60
2007,05,09,12,13,6.50
2007,05,09,12,14,7.70
2007,05,09,12,15,9.60
2007,05,09,12,16,6.80
2007,05,09,12,17,7.70
2007,05,09,12,18,6.30
2007,05,09,12,19,7.50
2007,05,09,12,20,8.20
2007,05,09,12,21,1.30
2007,05,09,12,22,4.30
2007,05,09,12,23,7.10
2007,05,09,12,24,5.60
2007,05,09,12,25,5.60
2007,05,09,12,26,4.60
2007,05,09,12,27,4.60
2007,05,09,12,28,9.40
2007,05,09,12,30,9.30
2007,05,09,12,31,8.90
2007,05,09,12,32,5.80
2007,05,09,12,33,7.50
2007,05,09,12,34,8.90
2007,05,09,12,35,7.40
2007,05,09,12,36,12.70
2007,05,09,12,37,6.40
2007,05,09,12,38,11.50
2007,05,09,12,39,9.00
2007,05,09,12,40,9.60
2007,05,09,12,41,8.20
2007,05,09,12,42,6.40
2007,05,09,12,43,6.40
2007,05,09,12,44,6.40
2007,05,09,12,45,6.40
2007,05,09,12,46,6.40
2007,05,09,12,47,4.30
2007,05,09,12,48,6.70
2007,05,09,12,49,9.30
2007,05,09,12,50,12.40
2007,05,09,12,51,6.60
2007,05,09,12,52,7.40
2007,05,09,12,53,7.50
2007,05,09,12,54,6.70
2007,05,09,12,55,10.10
2007,05,09,12,56,10.10
2007,05,09,12,57,6.00
2007,05,09,12,58,6.30
2007,05,09,12,59,7.70
2007,05,09,13,00,12.40
2007,05,09,13,01,7.30
2007,05,09,13,02,4.20
2007,05,09,13,03,6.80
2007,05,09,13,04,9.90
2007,05,09,13,05,5.00
2007,05,09,13,06,9.60
2007,05,09,13,07,7.00
2007,05,09,13,08,5.50
2007,05,09,13,09,10.10
2007,05,09,13,10,6.70
2007,05,09,13,11,7.10
2007,05,09,13,12,4.20
2007,05,09,13,13,5.10
2007,05,09,13,14,6.90
2007,05,09,13,15,9.40
2007,05,09,13,16,6.20
2007,05,09,13,17,4.60
2007,05,09,13,18,5.20
2007,05,09,13,19,7.20
2007,05,09,13,20,7.90
2007,05,09,13,21,9.40
2007,05,09,13,22,8.90
2007,05,09,13,23,7.30
2007,05,09,13,24,6.50
2007,05,09,13,25,7.00
2007,05,09,13,26,6.20
2007,05,09,13,27,6.60
2007,05,09,13,28,4.70
2007,05,09,13,29,6.50
2007,05,09,13,30,8.50
2007,05,09,13,31,5.60
2007,05,09,13,32,8.60
2007,05,09,13,33,6.50
2007,05,09,13,34,9.20
2007,05,09,13,35,8.50
2007,05,09,13,36,8.50
2007,05,09,13,37,7.90
2007,05,09,13,38,7.20
2007,05,09,13,39,2.50
2007,05,09,13,40,4.70
2007,05,09,13,41,4.70
2007,05,09,13,42,6.90
2007,05,09,13,43,3.10
2007,05,09,13,44,1.00
2007,05,09,13,45,8.70
2007,05,09,13,46,4.10
2007,05,09,13,47,3.20
2007,05,09,13,48,4.30
2007,05,09,13,49,8.10
2007,05,09,13,50,10.80
2007,05,09,13,51,7.90
2007,05,09,13,52,9.00
2007,05,09,13,53,11.80
2007,05,09,13,54,11.70
2007,05,09,13,55,9.20
2007,05,09,13,56,10.30
2007,05,09,13,57,9.60
2007,05,09,13,58,8.90
2007,05,09,13,59,9.60
2007,05,09,14,00,12.20
2007,05,09,14,01,13.40
2007,05,09,14,02,10.70
2007,05,09,14,03,12.30
2007,05,09,14,04,10.70
2007,05,09,14,05,10.10
2007,05,09,14,06,9.10
2007,05,09,14,07,8.30
2007,05,09,14,08,12.60
2007,05,09,14,09,8.80
2007,05,09,14,10,5.20
2007,05,09,14,11,9.40
2007,05,09,14,12,4.90
2007,05,09,14,13,7.50
2007,05,09,14,14,6.90
2007,05,09,14,15,10.60
2007,05,09,14,16,14.10
2007,05,09,14,17,7.80
2007,05,09,14,18,4.30
2007,05,09,14,19,2.80
2007,05,09,14,20,6.60
2007,05,09,14,21,7.80
2007,05,09,14,22,9.30
2007,05,09,14,23,6.20
2007,05,09,14,24,9.20
2007,05,09,14,25,8.90
2007,05,09,14,26,8.10
2007,05,09,14,27,8.90
2007,05,09,14,28,6.60
2007,05,09,14,29,6.00
2007,05,09,14,30,8.00
2007,05,09,14,31,14.90
2007,05,09,14,32,11.70
2007,05,09,14,33,8.60
2007,05,09,14,34,7.10
2007,05,09,14,35,10.00
2007,05,09,14,36,7.70
2007,05,09,14,37,3.00
2007,05,09,14,38,4.90
2007,05,09,14,39,6.40
2007,05,09,14,40,9.40
2007,05,09,14,41,7.80
2007,05,09,14,42,10.10
2007,05,09,14,43,7.50
2007,05,09,14,44,7.80
2007,05,09,14,45,12.70
2007,05,09,14,46,7.30
2007,05,09,14,47,12.30
2007,05,09,14,48,8.90
2007,05,09,14,49,14.60
2007,05,09,14,50,10.00
2007,05,09,14,51,7.50
2007,05,09,14,52,7.50
2007,05,09,14,53,10.80
2007,05,09,14,54,11.70
2007,05,09,14,55,8.00
2007,05,09,14,56,5.90
2007,05,09,14,57,6.40
2007,05,09,14,58,5.20
2007,05,09,14,59,5.60
2007,05,09,15,00,9.00
2007,05,09,15,01,8.50
2007,05,09,15,02,8.60
2007,05,09,15,03,8.00
2007,05,09,15,04,8.90
2007,05,09,15,05,7.70
2007,05,09,15,06,9.10
2007,05,09,15,07,8.00
2007,05,09,15,08,8.70
2007,05,09,15,09,6.10
2007,05,09,15,10,4.70
2007,05,09,15,11,13.40
2007,05,09,15,12,7.80
2007,05,09,15,13,4.10
2007,05,09,15,14,5.20
2007,05,09,15,15,9.50
2007,05,09,15,16,8.80
2007,05,09,15,17,4.00
2007,05,09,15,18,6.80
2007,05,09,15,19,7.50
2007,05,09,15,20,6.30
2007,05,09,15,21,7.00
2007,05,09,15,22,5.40
2007,05,09,15,23,9.70
2007,05,09,15,24,8.60
2007,05,09,15,25,9.80
2007,05,09,15,26,4.50
2007,05,09,15,27,11.00
2007,05,09,15,28,7.80
2007,05,09,15,29,6.70
2007,05,09,15,30,7.50
2007,05,09,15,31,7.10
2007,05,09,15,32,6.90
2007,05,09,15,33,8.70
2007,05,09,15,34,14.50
2007,05,09,15,35,7.40
2007,05,09,15,36,8.80
2007,05,09,15,37,12.70
2007,05,09,15,38,9.60
2007,05,09,15,39,5.90
2007,05,09,15,40,9.50
2007,05,09,15,41,6.80
2007,05,09,15,42,6.10
2007,05,09,15,43,8.30
2007,05,09,15,44,8.40
2007,05,09,15,45,5.60
2007,05,09,15,46,6.40
2007,05,09,15,47,7.70
2007,05,09,15,48,5.70
2007,05,09,15,49,7.20
2007,05,09,15,50,6.20
2007,05,09,15,51,8.90
2007,05,09,15,52,5.60
2007,05,09,15,53,5.20
2007,05,09,15,54,5.90
2007,05,09,15,55,9.70
2007,05,09,15,56,6.70
2007,05,09,15,57,3.10
2007,05,09,15,58,5.90
2007,05,09,15,59,8.20
2007,05,09,16,00,4.90
2007,05,09,16,01,7.10
2007,05,09,16,02,11.00
2007,05,09,16,03,8.60
2007,05,09,16,04,8.80
2007,05,09,16,05,8.80
2007,05,09,16,06,10.60
2007,05,09,16,07,5.10
2007,05,09,16,08,4.80
2007,05,09,16,09,9.10
2007,05,09,16,10,9.00
2007,05,09,16,11,8.00
2007,05,09,16,12,6.60
2007,05,09,16,13,7.20
2007,05,09,16,14,9.10
2007,05,09,16,15,6.30
2007,05,09,16,16,6.30
2007,05,09,16,17,6.60
2007,05,09,16,18,6.40
2007,05,09,16,19,8.10
2007,05,09,16,20,10.10
2007,05,09,16,21,5.70
2007,05,09,16,22,7.10
2007,05,09,16,23,4.40
2007,05,09,16,24,8.90
2007,05,09,16,25,5.50
2007,05,09,16,26,11.20
2007,05,09,16,27,8.20
2007,05,09,16,28,5.80
2007,05,09,16,29,5.60
2007,05,09,16,30,13.50
2007,05,09,16,31,12.00
2007,05,09,16,32,5.00
2007,05,09,16,33,6.80
2007,05,09,16,34,8.90
2007,05,09,16,35,7.90
2007,05,09,16,36,11.90
2007,05,09,16,37,7.10
2007,05,09,16,38,4.20
2007,05,09,16,39,5.20
2007,05,09,16,40,2.20
2007,05,09,16,41,2.60
2007,05,09,16,42,3.20
2007,05,09,16,43,3.20
2007,05,09,16,44,8.30
2007,05,09,16,45,8.20
2007,05,09,16,46,6.90
2007,05,09,16,47,6.70
2007,05,09,16,48,5.30
2007,05,09,16,49,9.30
2007,05,09,16,50,3.70
2007,05,09,16,51,5.50
2007,05,09,16,52,8.10
2007,05,09,16,53,7.50
2007,05,09,16,54,5.10
2007,05,09,16,55,5.20
2007,05,09,16,56,3.80
2007,05,09,16,57,3.80
2007,05,09,16,58,7.20
2007,05,09,16,59,9.80
2007,05,09,17,00,5.30
2007,05,09,17,01,6.50
2007,05,09,17,02,6.50
2007,05,09,17,03,8.50
2007,05,09,17,04,4.50
2007,05,09,17,05,4.80
2007,05,09,17,06,4.70
2007,05,09,17,07,6.50
2007,05,09,17,08,8.40
2007,05,09,17,09,9.30
2007,05,09,17,10,7.30
2007,05,09,17,11,8.90
2007,05,09,17,12,10.00
2007,05,09,17,13,10.10
2007,05,09,17,14,3.50
2007,05,09,17,15,2.10
2007,05,09,17,16,4.90
2007,05,09,17,17,4.10
2007,05,09,17,18,4.50
2007,05,09,17,19,4.80
2007,05,09,17,20,3.40
2007,05,09,17,21,3.10
2007,05,09,17,22,2.30
2007,05,09,17,23,4.90
2007,05,09,17,24,6.90
2007,05,09,17,25,4.80
2007,05,09,17,26,9.00
2007,05,09,17,27,8.70
2007,05,09,17,28,9.50
2007,05,09,17,29,8.00
2007,05,09,17,30,6.20
2007,05,09,17,31,6.20
2007,05,09,17,32,6.00
2007,05,09,17,33,7.20
2007,05,09,17,34,5.00
2007,05,09,17,35,5.50
2007,05,09,17,36,4.10
2007,05,09,17,37,6.60
2007,05,09,17,38,5.00
2007,05,09,17,39,4.40
2007,05,09,17,40,4.70
2007,05,09,17,41,5.00
2007,05,09,17,42,8.10
2007,05,09,17,43,4.30
2007,05,09,17,44,4.10
2007,05,09,17,45,6.10
2007,05,09,17,46,4.90
2007,05,09,17,47,7.20
2007,05,09,17,48,8.80
2007,05,09,17,49,6.60
2007,05,09,17,50,10.00
2007,05,09,17,51,10.50
2007,05,09,17,52,10.90
2007,05,09,17,53,11.40
2007,05,09,17,54,12.80
2007,05,09,17,55,9.20
2007,05,09,17,56,5.10
2007,05,09,17,57,5.20
2007,05,09,17,58,5.50
2007,05,09,17,59,8.80
2007,05,09,18,00,5.30
2007,05,09,18,01,6.00